Date String (YYYY-MM-DD hh:mm:ss) UTC,Instrument flags,absolute air pressure of the measurement (hPa),sample flow rate (lpm),inlet stack bypass flow (lpm),air temperature of the measurement (°C),ambient temperature measured by the external sensor (°C),aerosol sample conditioner tube jacket temperature (°C),OPC LED temperature (°C),internal box temperature (°C),relative humidity of the measurement (%),span deviation,mass concentration of particles derived from Lorenz-Mie calculation of OPC scattering (μg/m³),mass concentration of particles derived from Lorenz-Mie calculation of OPC scattering (μg/m³),mass concentration of particles derived from Lorenz-Mie calculation of OPC scattering (μg/m³)
DateTimeUTC,F1_M11,P_M11,Q1_M11,Q2_M11,T1_M11,T2_M11,T3_M11,T4_M11,T5_M11,U1_M11,ZSPAN_M11,X2_M11,X0_M11,X1_M11
2024-04-25 01:00:00,SystemResetWarning,0824.4,4.99,000.00,025.4,025.0,000.0,033.3,027.4,023.5,0002.7,0006.46,0020.61,0005.25
2024-04-25 01:01:00,SystemResetWarning,0824.4,4.99,000.00,025.4,024.8,000.0,033.4,027.2,023.2,0001.4,0006.43,0021.83,0005.24
2024-04-25 01:02:00,SystemResetWarning,0824.3,5.00,000.00,025.2,022.9,000.0,033.5,026.2,023.8,0004.1,0006.42,0023.58,0005.25
2024-04-25 01:03:00,SystemResetWarning,0824.4,5.00,000.00,024.7,021.4,000.0,033.4,025.2,024.5,0004.0,0006.28,0023.18,0005.22
2024-04-25 01:04:00,SystemResetWarning,0824.4,5.02,000.00,024.5,021.5,000.0,033.4,025.2,025.0,0004.7,0006.23,0022.26,0005.21
2024-04-25 01:05:00,SystemResetWarning,0824.4,5.00,000.00,024.4,022.0,000.0,033.2,025.4,025.4,0005.2,0006.24,0022.15,0005.21
2024-04-25 01:06:00,SystemResetWarning,0824.4,4.99,000.00,024.4,022.4,000.0,033.1,025.8,025.3,0005.5,0006.28,0021.60,0005.20
2024-04-25 01:07:00,SystemResetWarning,0824.4,4.99,000.00,024.5,022.8,000.0,033.1,026.1,025.1,0005.4,0006.30,0020.54,0005.20
2024-04-25 01:08:00,SystemResetWarning,0824.4,5.00,000.00,024.6,023.1,000.0,033.0,026.3,024.9,0004.6,0006.30,0020.48,0005.17
2024-04-25 01:09:00,SystemResetWarning,0824.4,5.02,000.00,024.6,023.4,000.0,033.0,026.5,024.8,0004.4,0006.28,0020.62,0005.15
2024-04-25 01:10:00,SystemResetWarning,0824.4,4.99,000.00,024.7,023.7,000.0,033.0,026.6,024.7,0003.3,0006.29,0019.67,0005.15
2024-04-25 01:11:00,SystemResetWarning,0824.4,4.98,000.00,024.8,023.9,000.0,033.0,026.7,024.6,0002.1,0006.33,0019.27,0005.14
2024-04-25 01:12:00,SystemResetWarning,0824.4,5.01,000.00,024.9,024.2,000.0,033.1,026.8,024.3,0004.5,0006.35,0019.02,0005.12
2024-04-25 01:13:00,SystemResetWarning,0824.4,5.01,000.00,025.0,024.3,000.0,033.1,026.9,024.2,0002.9,0006.35,0017.15,0005.09
2024-04-25 01:14:00,SystemResetWarning,0824.4,4.98,000.00,025.0,024.5,000.0,033.1,027.0,024.0,0000.0,0006.37,0017.24,0005.08
2024-04-25 01:15:00,SystemResetWarning,0824.4,5.00,000.00,025.1,024.6,000.0,033.2,027.1,023.6,0000.0,0006.39,0017.67,0005.07
2024-04-25 01:16:00,SystemResetWarning,0824.4,5.01,000.00,025.2,024.8,000.0,033.2,027.2,023.4,0000.0,0006.44,0017.75,0005.08
2024-04-25 01:17:00,SystemResetWarning,0824.3,5.02,000.00,025.3,024.9,000.0,033.3,027.3,023.2,0000.0,0006.43,0017.83,0005.11
2024-04-25 01:18:00,SystemResetWarning,0824.4,5.00,000.00,025.3,025.0,000.0,033.3,027.4,023.2,0000.0,0006.44,0018.32,0005.13
2024-04-25 01:19:00,SystemResetWarning,0824.4,4.99,000.00,025.4,024.9,000.0,033.4,027.3,023.3,0000.0,0006.51,0019.04,0005.18
2024-04-25 01:20:00,SystemResetWarning,0824.3,4.99,000.00,025.2,023.2,000.0,033.5,026.3,023.6,0000.0,0006.57,0018.32,0005.21
2024-04-25 01:21:00,SystemResetWarning,0824.2,5.02,000.00,024.8,022.3,000.0,033.5,025.7,024.0,0000.0,0006.57,0018.40,0005.22
2024-04-25 01:22:00,SystemResetWarning,0824.3,4.98,000.00,024.7,022.5,000.0,033.4,025.7,024.6,0000.0,0006.60,0019.03,0005.23
2024-04-25 01:23:00,SystemResetWarning,0824.3,4.99,000.00,024.7,022.8,000.0,033.3,026.1,024.8,0000.0,0006.62,0017.89,0005.23
2024-04-25 01:24:00,SystemResetWarning,0824.3,5.01,000.00,024.8,023.2,000.0,033.2,026.4,024.4,0000.0,0006.61,0017.54,0005.22
2024-04-25 01:25:00,SystemResetWarning,0824.3,4.99,000.00,024.8,023.5,000.0,033.2,026.6,024.1,0001.9,0006.64,0018.54,0005.23
2024-04-25 01:26:00,SystemResetWarning,0824.3,4.99,000.00,024.9,023.8,000.0,033.2,026.7,023.9,0000.0,0006.64,0018.96,0005.22
2024-04-25 01:27:00,SystemResetWarning,0824.4,4.99,000.00,025.0,024.0,000.0,033.2,026.8,023.6,0003.7,0006.56,0019.99,0005.21
2024-04-25 01:28:00,SystemResetWarning,0824.4,5.00,000.00,025.0,024.2,000.0,033.3,026.9,023.5,0004.6,0006.55,0020.05,0005.19
2024-04-25 01:29:00,SystemResetWarning,0824.3,5.00,000.00,025.1,024.4,000.0,033.3,027.1,023.3,0004.4,0006.48,0019.52,0005.16
2024-04-25 01:30:00,SystemResetWarning,0824.3,5.01,000.00,025.2,024.5,000.0,033.3,027.2,022.9,0003.0,0006.43,0019.89,0005.14
2024-04-25 01:31:00,SystemResetWarning,0824.3,5.00,000.00,025.3,024.7,000.0,033.4,027.2,022.8,0003.7,0006.44,0020.44,0005.13
2024-04-25 01:32:00,SystemResetWarning,0824.3,5.00,000.00,025.3,024.8,000.0,033.4,027.3,022.6,0004.1,0006.51,0021.27,0005.14
2024-04-25 01:33:00,SystemResetWarning,0824.3,5.00,000.00,025.4,024.9,000.0,033.4,027.4,022.5,0003.9,0006.49,0020.53,0005.15
2024-04-25 01:34:00,SystemResetWarning,0824.2,5.00,000.00,025.5,024.8,000.0,033.5,027.3,022.5,0004.0,0006.51,0020.73,0005.18
2024-04-25 01:35:00,SystemResetWarning,0824.1,4.98,000.00,025.2,023.0,000.0,033.6,026.1,022.7,0004.0,0006.53,0020.97,0005.20
2024-04-25 01:36:00,SystemResetWarning,0824.0,5.01,000.00,024.7,021.4,000.0,033.5,025.1,023.3,0003.6,0006.54,0019.99,0005.21
2024-04-25 01:37:00,SystemResetWarning,0824.0,5.00,000.00,024.4,021.4,000.0,033.5,025.1,023.8,0003.8,0006.53,0019.83,0005.24
2024-04-25 01:38:00,SystemResetWarning,0824.0,5.00,000.00,024.4,021.8,000.0,033.3,025.4,024.1,0003.4,0006.59,0019.21,0005.26
2024-04-25 01:39:00,SystemResetWarning,0824.0,5.00,000.00,024.4,022.2,000.0,033.2,025.7,024.1,0004.1,0006.62,0019.01,0005.30
2024-04-25 01:40:00,SystemResetWarning,0824.0,5.00,000.00,024.4,022.6,000.0,033.1,026.0,024.0,0001.2,0006.68,0020.70,0005.33
2024-04-25 01:41:00,SystemResetWarning,0823.9,4.99,000.00,024.5,023.0,000.0,033.1,026.3,023.8,0004.7,0006.68,0020.32,0005.34
2024-04-25 01:42:00,SystemResetWarning,0824.0,5.00,000.00,024.6,023.3,000.0,033.1,026.4,023.7,0004.7,0006.65,0020.01,0005.35
2024-04-25 01:43:00,SystemResetWarning,0824.1,5.00,000.00,024.7,023.6,000.0,033.1,026.5,023.7,0005.0,0006.62,0019.77,0005.36
2024-04-25 01:44:00,SystemResetWarning,0824.2,4.99,000.00,024.7,023.8,000.0,033.1,026.7,023.5,0004.6,0006.62,0019.32,0005.37
2024-04-25 01:45:00,SystemResetWarning,0824.1,5.00,000.00,024.8,024.0,000.0,033.1,026.8,023.3,0004.7,0006.59,0020.46,0005.38
2024-04-25 01:46:00,SystemResetWarning,0824.1,5.00,000.00,024.9,024.2,000.0,033.1,026.9,023.3,0004.8,0006.55,0020.91,0005.39
2024-04-25 01:47:00,SystemResetWarning,0824.1,5.01,000.00,025.0,024.3,000.0,033.1,026.9,023.3,0004.5,0006.58,0021.46,0005.40
2024-04-25 01:48:00,SystemResetWarning,0824.2,5.01,000.00,025.1,024.5,000.0,033.2,027.0,023.3,0004.2,0006.65,0021.22,0005.40
2024-04-25 01:49:00,SystemResetWarning,0824.2,5.01,000.00,025.1,024.6,000.0,033.2,027.1,023.3,0003.6,0006.62,0020.86,0005.39
2024-04-25 01:50:00,SystemResetWarning,0824.2,4.99,000.00,025.2,024.7,000.0,033.3,027.2,023.2,0000.7,0006.59,0021.56,0005.36
2024-04-25 01:51:00,SystemResetWarning,0824.3,4.99,000.00,025.3,024.8,000.0,033.3,027.3,023.2,0002.1,0006.60,0021.58,0005.35
2024-04-25 01:52:00,SystemResetWarning,0824.2,5.01,000.00,025.3,024.9,000.0,033.3,027.3,023.0,0004.1,0006.64,0021.27,0005.36
2024-04-25 01:53:00,SystemResetWarning,0824.3,5.01,000.00,025.4,025.0,000.0,033.4,027.4,022.8,0001.2,0006.70,0022.69,0005.38
2024-04-25 01:54:00,SystemResetWarning,0824.3,5.00,000.00,025.5,025.1,000.0,033.4,027.4,022.7,0003.7,0006.75,0023.56,0005.39
2024-04-25 01:55:00,SystemResetWarning,0824.2,4.98,000.00,025.5,025.1,000.0,033.5,027.5,022.6,0004.1,0006.73,0023.31,0005.38
2024-04-25 01:56:00,SystemResetWarning,0824.1,4.99,000.00,025.4,023.7,000.0,033.6,026.6,022.6,0003.9,0006.74,0022.06,0005.39
2024-04-25 01:57:00,SystemResetWarning,0824.1,5.02,000.00,025.0,022.2,000.0,033.6,025.8,023.2,0003.7,0006.83,0021.76,0005.41
2024-04-25 01:58:00,SystemResetWarning,0824.1,5.00,000.00,024.8,022.3,000.0,033.5,025.6,023.6,0003.4,0006.81,0021.45,0005.44
2024-04-25 01:59:00,SystemResetWarning,0824.2,4.99,000.00,024.7,022.6,000.0,033.4,025.9,023.8,0004.1,0006.81,0021.41,0005.47
